Tracking 28920 objects as of 24-May-2024
HD Live streaming from Space Station
objects crossing your sky now

STARLINK-6077

Track STARLINK-6077 now!
10-day predictions
STARLINK-6077 is classified as:


NORAD ID: 56097
Int'l Code: 2023-046E
Perigee: 565.4 km
Apogee: 567.0 km
Inclination: 43.0 °
Period: 95.8 minutes
Semi major axis: 6937 km
RCS: Unknown
Launch date: March 29, 2023
Source: United States (US)
Launch site: AIR FORCE EASTERN TEST RANGE (AFETR)
Your satellite tracking list
Your tracking list is empty




NASA's NSSDC Master Catalog

Two Line Element Set (TLE):
1 56097U 23046E   24145.17574729  .00001161  00000-0  10099-3 0  9991
2 56097  43.0077  63.5490 0001164 273.6088  86.4621 15.02536593 64740
Source of the keplerian elements: AFSPC